Regional Weather Roundup
Issued by NWS

Home | Current Version | Previous Version | Graphics & Text | Print | Product List | Glossary Off
Versions: 1 2 3 4 5 6 7 8 9 10 11 12 13 14 15 16 17 18 19 20 21 22 23 24 25 26 27 28 29 30 31 32 33 34 35 36 37 38 39 40 41 42 43 44 45 46 47 48 49 50

464
ASUS43 KMKX 060500
RWRWI

WISCONSIN REGIONAL WEATHER ROUNDUP
NATIONAL WEATHER SERVICE MILWAUKEE/SULLIVAN WI
1100 PM CST FRI FEB 05 2016

NOTE: "FAIR" INDICATES FEW OR NO CLOUDS BELOW 12,000 FEET WITH NO
SIGNIFICANT WEATHER AND/OR OBSTRUCTIONS TO VISIBILITY.

WIZ001-002-006>008-014>016-023>028-060600-
NORTHWEST WISCONSIN

CITY           SKY/WX    TMP DP  RH WIND       PRES   REMARKS
SUPERIOR ARPT  CLOUDY    26  17  68 SW10      30.12F WCI  16
ASHLAND        CLOUDY    24  15  68 SW7       30.12F WCI  16
HAYWARD        CLOUDY    22  14  71 SW7       30.12F WCI  13
SIREN          CLOUDY    25  19  80 SW7       30.15F WCI  17
CUMBERLAND     CLOUDY    23  19  86 SW10      30.14F WCI  12
RICE LAKE      CLOUDY    24  19  82 SW7       30.18S WCI  15
CHETEK         CLOUDY    23  18  81 SW7       30.17F WCI  15
LADYSMITH      FLURRIES  22  16  77 S7        30.17S WCI  13
EAU CLAIRE     NOT AVBL
MENOMONIE      FLURRIES  25  17  74 S9        30.20S WCI  15
NEW RICHMOND   CLOUDY    24  19  84 SW7       30.18S WCI  15
OSCEOLA        CLOUDY    25  20  84 S5        30.20S WCI  19
$$

WIZ003>005-009-010-017-018-060600-
NORTH CENTRAL WISCONSIN

CITY           SKY/WX    TMP DP  RH WIND       PRES   REMARKS
MANITOWISH WTR LGT SNOW  20  14  78 SW8       30.09S WCI  10
ARBOR VITAE    FLURRIES  22  15  74 SW10      30.10S WCI  11
WOODRUFF       FLURRIES  22  15  74 SW10      30.10S WCI  11
RHINELANDER    CLOUDY    20  13  74 SW13      30.11F WCI   7
EAGLE RIVER    FLURRIES  21  11  65 SW14      30.09F WCI   8
LAND O LAKES   FLURRIES  22  13  67 SW9       30.08F WCI  12
PHILLIPS       FLURRIES  20  15  80 SW12      30.12S WCI   8
TOMAHAWK       LGT SNOW  20  14  77 CALM      30.14F
MEDFORD        FLURRIES  20  15  83 SW9       30.15F WCI   9
MERRILL        FLURRIES  21  15  76 SW8       30.18F WCI  12
$$

WIZ029-030-035-036-043>047-060600-
CENTRAL WISCONSIN

CITY           SKY/WX    TMP DP  RH WIND       PRES   REMARKS
WAUSAU         FLURRIES  23  13  65 SW8       30.17F WCI  14
MOSINEE        CLOUDY    21  16  79 CALM      30.20F
MARSHFIELD     CLOUDY    22  13  68 SW10      30.18F WCI  11
STEVENS POINT  CLOUDY    21  15  76 S7        30.21F WCI  13
WAUPACA        CLOUDY    26  19  75 SW6       30.23F WCI  19
WAUTOMA        NOT AVBL
WISC RAPIDS    FLURRIES  23  16  74 SW7       30.23F WCI  15
CAMP DOUGLAS   NOT AVBL
$$

WIZ011>013-019>022-031-037>040-048>050-060600-
NORTHEAST WISCONSIN

CITY           SKY/WX    TMP DP  RH WIND       PRES   REMARKS
ANTIGO         CLOUDY    20  14  76 SW10      30.16S WCI   9
SHAWANO        CLOUDY    25  17  72 SW6       30.22F WCI  18
OCONTO         CLOUDY    22  17  83 SW5       30.22F WCI  15
STURGEON BAY   CLOUDY    23  14  68 SW12      30.23F WCI  12
GREEN BAY      CLOUDY    22  17  81 SW3       30.23F
MANITOWOC      NOT AVBL
APPLETON       CLOUDY    23  16  74 S8        30.21F WCI  14
CLINTONVILLE   CLOUDY    23  18  80 W3        30.23S
OSHKOSH        CLOUDY    24  15  68 SW8       30.23F WCI  15
$$

WIZ032>034-041-042-053>061-060600-
SOUTHWEST WISCONSIN

CITY           SKY/WX    TMP DP  RH WIND       PRES   REMARKS
LA CROSSE      CLOUDY    24  17  74 S7        30.25F WCI  16
SPARTA         CLOUDY    24  17  73 SW3       30.26S
VIROQUA        CLOUDY    23  19  86 S9        30.22F WCI  13
BOSCOBEL       CLOUDY    26  21  81 W3        30.29S
PRAIRIE DU CHI CLOUDY    26  19  74 CALM      30.28F
PLATTEVILLE    PTCLDY    26  22  88 S5        30.27F WCI  20
$$

WIZ056-057-062-063-064-067-068-060600-
SOUTH CENTRAL WISCONSIN

CITY           SKY/WX    TMP DP  RH WIND       PRES   REMARKS
REEDSBURG      CLOUDY    24  17  75 W5        30.25S WCI  18
BARABOO/DELLS  PTCLDY    23  15  71 SW7       30.24S WCI  14
LONE ROCK      NOT AVBL
MINERAL POINT  PTCLDY    27  21  80 S6        30.26S WCI  20
MADISON        CLOUDY    27  18  69 S9        30.26F WCI  18
MIDDLETON      CLOUDY    28  20  72 SW8       30.27F WCI  20
WATERTOWN      CLOUDY    27  20  77 S5        30.27F WCI  21
MONROE         MOCLDY    28  23  80 SW9       30.27F WCI  20
JANESVILLE     CLOUDY    30  25  80 SW3       30.29F
$$

WIZ051-052-058>065-066-070>072-060600-
SOUTHEAST WISCONSIN

CITY           SKY/WX    TMP DP  RH WIND       PRES   REMARKS
MILWAUKEE      CLOUDY    29  19  66 SW6       30.28F WCI  23
WAUKESHA       CLOUDY    27  19  74 SW3       30.29F
MILWAUKEE/TIMM CLOUDY    28  18  64 SW7       30.29F WCI  21
RACINE         CLOUDY    28  19  69 SW5       30.30F WCI  23
BURLINGTON     PTCLDY    24  20  84 CALM      30.29F
KENOSHA        CLOUDY    27  19  72 SW3       30.29F
FOND DU LAC    CLOUDY    25  16  68 SW7       30.24F WCI  17
SHEBOYGAN        N/A     24  16  71 SW8       30.24F WCI  15
WEST BEND      CLOUDY    27  18  69 CALM      30.25F
JUNEAU         CLOUDY    25  18  76 S9        30.27F WCI  15
$$

LSZ147-162-060600-
LAKE SUPERIOR

STATION/POSITION TIME  TEMP    WIND        PRES    WAVE
                       AIR SEA DIR/SP/G            HT/PER
                 (UTC) (F)     (DEG/KT/KT) (MB)    (FT/S)
DEVILS ISLAND    0400   29     240/ 23/ 28 1020.0F
PORT WING        0300   27     220/  7/ 16   N/A
SAXON HARBOR     0440   25                 1020.0S
$$

LMZ867-665-643>646-060600-
LAKE MICHIGAN

STATION/POSITION TIME  TEMP    WIND        PRES    WAVE
                       AIR SEA DIR/SP/G            HT/PER
                 (UTC) (F)     (DEG/KT/KT) (MB)    (FT/S)
CHAMBERS ISLAND  0400   22     190/  8/ 12 1023.0F
ALGOMA LAKESHORE 0411          240/  8/ 10   N/A
KEWAUNEE LAKESHO 0400   24     280/  7/ 11 1023.3F
SHEBOYGAN LAKESH 0400   27     220/  8/  9 1026.2F
PORT WASHINGTON  0400   29     250/  7/ 10 1026.1F
MILWAUKEE LAKESH 0410   30     260/  9/ 12   N/A
KENOSHA   LAKESH 0400   29     250/  5/  7 1026.1F
$$

TC  - TEMPERATURE IN CELSIUS
VSB - VISIBILITY IN STATUTE MILES
WCI - WIND CHILL INDEX
HX  - HEAT INDEX





USA.gov is the U.S. government's official web portal to all federal, state and local government web resources and services.